Theta_e
363 364 364 364 364 361 359 354 351 350 347 346 346 347 348 348 349 347 345 346 347 348 350 349 347 349 350 351 353 354 353 354 353 353 352 352 351 350 350 350 352 352
361 360 359 359 360 360 361 360 357 354 348 345 345 344 345 346 348 346 343 345 347 347 348 348 347 347 350 354 355 356 356 356 358 357 357 356 355 354 352 351 351 351
358 357 356 356 356 354 354 355 358 359 354 350 346 343 342 342 345 346 344 346 349 348 347 348 348 348 349 350 352 355 356 356 358 359 359 359 359 359 356 353 352 351
356 357 356 355 352 349 349 349 351 355 355 352 348 344 341 341 343 345 345 345 347 348 348 349 349 348 346 346 349 354 353 354 358 359 358 357 359 360 359 356 353 352
349 351 352 349 344 345 348 348 348 350 349 347 346 344 342 343 344 344 347 346 347 349 349 346 348 349 349 350 350 350 352 354 357 356 353 354 358 360 359 357 356 355
345 345 345 345 344 345 350 350 348 346 345 344 342 343 344 346 344 344 348 353 353 353 354 352 350 351 353 354 352 353 355 354 353 351 350 355 360 360 359 357 355 354
344 345 346 346 347 350 351 351 349 346 345 345 343 344 347 349 350 351 355 359 357 356 356 355 354 353 355 358 358 359 359 356 353 353 354 357 359 359 358 357 355 355
347 347 347 348 349 350 352 353 352 347 345 345 345 346 346 349 356 360 362 363 363 360 359 359 359 358 359 361 361 361 360 359 356 353 354 356 357 356 356 356 357 358
350 351 350 352 351 352 354 354 350 346 349 352 350 350 348 350 357 364 366 365 364 363 363 363 362 361 360 360 360 361 360 358 357 354 354 355 355 355 356 355 355 355
357 358 359 358 355 354 357 357 353 354 363 364 362 361 359 359 361 364 364 363 360 359 360 360 359 359 360 359 359 359 358 357 356 354 354 355 354 354 353 350 348 348
363 364 365 365 362 360 360 364 364 366 367 366 365 365 364 363 362 362 362 359 358 358 357 357 358 358 358 357 357 357 357 357 356 354 353 353 352 352 350 348 347 348
365 366 368 369 368 366 365 367 368 366 365 363 362 362 362 362 362 360 359 358 357 357 356 355 355 354 353 353 353 353 353 354 354 351 349 347 347 346 347 347 348 349
366 370 371 370 369 368 365 364 363 361 361 361 359 359 358 359 358 356 355 355 354 353 352 350 349 348 348 348 348 348 348 348 348 346 344 341 340 341 340 340 340 342
368 369 368 366 365 364 362 361 360 359 359 358 357 357 355 354 353 353 352 351 349 348 346 345 345 344 343 342 341 341 340 340 340 340 340 339 338 337 337 337 337 337
366 364 363 363 361 361 360 358 357 357 355 354 353 353 352 350 349 349 348 347 346 345 345 344 343 339 336 335 335 334 333 333 333 334 336 337 336 337 337 337 337 337
362 361 361 359 358 357 357 356 354 353 352 351 350 349 348 348 346 346 346 345 344 343 342 341 338 333 331 331 331 330 329 328 329 330 332 334 335 336 336 336 336 335
360 358 357 356 355 355 353 352 352 350 349 348 347 346 346 345 345 344 343 341 341 339 338 337 334 331 330 330 328 327 326 325 326 328 329 330 332 333 334 334 334 334
357 356 355 353 352 352 350 349 348 347 346 345 344 344 343 343 342 341 339 339 339 338 337 336 332 330 329 327 325 324 324 323 325 327 327 328 329 330 331 332 332 333
354 353 353 350 350 348 348 347 346 345 344 342 342 342 341 340 338 338 339 339 338 338 337 335 331 328 327 325 324 323 322 323 324 325 326 326 327 328 328 329 330 331
352 351 349 348 347 347 345 344 343 342 341 340 339 339 338 338 338 338 338 338 337 336 335 332 329 327 326 324 323 323 322 322 323 323 324 324 325 325 326 327 327 328
349 348 347 346 345 344 343 341 340 339 338 337 337 338 337 337 337 336 336 335 333 332 332 330 328 327 325 323 323 322 321 321 322 322 322 322 323 324 324 325 326 327
346 346 345 344 343 341 340 339 338 337 336 336 337 337 336 335 334 334 333 331 330 330 329 328 328 326 325 323 322 321 320 320 320 321 321 322 322 323 324 324 325 325
345 344 343 342 341 339 338 337 337 336 335 336 336 335 333 332 331 331 330 329 329 327 327 326 326 326 324 322 321 320 319 319 319 320 320 321 322 322 323 323 324 325
343 342 340 339 338 337 337 336 335 335 334 334 334 332 331 329 329 329 328 328 327 326 326 326 325 325 324 322 321 320 319 319 319 320 320 321 322 322 322 322 323 324
340 339 338 337 336 336 335 334 334 333 332 332 330 330 329 328 328 328 327 327 326 326 326 325 325 325 323 322 320 319 318 318 319 319 320 321 321 321 322 322 323 323
338 337 337 336 335 334 334 333 332 331 331 330 329 329 329 328 327 327 327 327 326 326 326 325 324 324 323 321 319 319 319 319 319 320 320 321 322 322 322 323 323 323
Wind_Speed
16 15 16 16 17 18 17 16 16 16 18 18 17 18 19 18 17 15 15 15 13 16 22 21 17 18 21 20 19 20 21 22 22 21 20 19 17 15 15 14 15 17
16 15 16 15 16 17 17 16 15 15 17 18 16 15 15 15 18 18 18 17 17 16 19 19 16 15 19 21 21 20 20 19 19 19 18 18 18 17 16 16 17 19
17 16 16 15 15 15 15 16 16 15 15 17 17 17 18 18 17 18 19 19 17 16 17 17 15 15 18 20 21 22 21 19 20 19 18 18 17 15 15 18 19 20
17 16 16 15 16 16 15 15 17 17 17 18 18 18 19 21 19 15 15 15 15 17 20 20 20 20 20 19 19 21 20 17 16 15 14 16 16 15 17 19 20 22
18 18 17 17 17 17 15 14 16 17 17 17 18 17 19 22 21 15 12 13 14 16 19 21 21 22 21 18 17 18 16 13 13 15 16 18 18 20 22 23 24 26
19 20 19 18 18 17 14 14 16 17 17 17 18 17 15 15 16 14 12 12 12 12 14 16 19 21 20 17 16 15 13 15 18 19 20 20 19 21 23 25 25 25
15 15 13 13 12 13 12 14 15 15 15 15 15 15 10 7 7 9 10 11 11 11 13 15 16 16 14 12 12 10 9 13 15 14 14 16 17 18 21 22 23 24
15 14 14 12 7 10 11 12 12 13 15 16 16 17 14 8 4 3 4 6 7 9 12 12 12 11 10 10 10 9 9 11 11 11 15 20 22 22 23 21 20 22
16 16 16 14 8 8 10 11 11 12 13 14 14 13 11 8 5 2 2 3 4 6 7 8 8 8 9 9 8 8 9 11 12 11 13 17 18 18 18 16 16 19
14 12 11 10 8 7 8 8 8 7 7 6 5 4 3 4 5 4 5 6 7 7 8 8 8 8 9 10 10 11 12 13 12 11 11 12 14 15 17 17 17 20
10 8 6 4 3 4 4 2 1 3 7 6 5 6 5 3 3 4 5 7 8 8 9 9 10 9 9 10 11 12 12 12 11 12 12 12 14 18 21 21 20 22
7 5 3 1 1 1 1 4 5 4 6 7 6 6 5 4 4 5 6 7 9 9 10 11 11 11 10 10 11 12 12 11 9 8 9 11 13 15 17 18 19 21
5 5 5 5 5 5 6 7 5 4 5 6 6 6 6 5 5 5 5 7 9 10 10 13 12 10 8 8 9 10 10 10 10 10 11 13 14 16 18 19 20 21
8 9 7 7 7 7 6 7 6 5 6 6 5 5 7 8 7 6 7 8 9 9 10 11 8 7 8 9 10 11 12 13 14 15 15 16 17 18 19 20 21 22
11 10 8 8 8 7 7 7 7 6 5 7 7 6 7 8 8 9 9 9 8 8 9 7 6 9 12 13 14 15 16 16 17 17 17 18 18 18 18 18 19 19
11 10 9 9 9 7 6 6 6 7 7 7 8 8 7 8 8 8 8 7 7 9 8 7 8 12 14 15 16 18 19 20 21 19 18 17 18 18 18 18 18 19
12 11 11 11 9 7 7 7 7 8 8 8 8 7 7 7 7 7 8 7 8 9 8 8 10 14 16 18 20 21 22 24 22 18 17 18 18 18 18 18 18 19
13 11 11 10 8 7 9 10 9 8 8 8 8 7 7 7 8 8 9 9 10 11 9 9 12 16 17 21 23 23 25 26 21 16 16 17 17 17 17 17 18 19
12 11 11 10 9 9 9 9 9 9 9 9 8 8 8 8 9 10 11 11 12 11 9 8 13 17 19 24 25 25 28 27 20 16 16 16 16 17 17 17 18 19
11 12 11 10 10 10 10 10 10 9 9 9 9 9 9 10 11 12 12 12 12 12 10 9 14 19 22 25 27 27 29 27 20 16 16 16 16 17 17 18 19 20
12 11 11 10 10 10 10 10 9 10 10 10 9 10 11 10 10 10 11 13 13 13 12 10 13 18 23 26 27 29 30 26 19 16 16 16 16 17 18 19 20 20
12 11 11 10 10 10 10 10 10 10 10 10 9 9 10 10 11 12 12 14 15 15 14 12 13 17 23 25 27 30 30 24 17 15 16 16 17 17 18 19 20 20
12 11 11 10 10 10 10 10 10 10 9 8 8 9 11 13 15 15 14 14 15 15 15 14 14 17 21 24 27 30 28 21 15 15 15 15 16 17 18 19 19 18
12 11 11 10 10 10 9 10 9 8 8 8 10 12 14 14 14 14 14 15 15 15 15 15 15 16 19 24 27 28 25 19 15 15 15 15 17 18 19 19 19 18
12 11 11 11 10 9 9 8 8 8 9 10 12 13 13 12 12 13 14 14 14 14 14 15 16 16 19 24 25 24 23 19 14 12 14 15 17 18 18 19 19 18
12 12 12 11 10 10 8 7 8 9 10 10 11 11 10 11 12 12 13 13 13 14 14 15 16 16 18 23 23 20 20 19 14 12 14 17 18 18 18 19 19 17
Wind_Direction
213 214 218 220 224 229 232 238 240 239 244 249 250 252 247 237 231 235 260 269 252 241 244 245 255 263 257 254 255 255 254 254 256 260 263 263 263 261 257 249 241 233
216 218 222 225 227 230 231 237 245 248 253 260 263 265 266 248 225 231 251 247 233 242 250 245 249 257 247 242 248 250 249 251 254 257 257 257 258 255 252 252 248 241
218 222 226 229 231 233 236 238 240 242 247 258 264 263 269 269 249 235 233 227 234 255 256 245 247 253 246 246 253 248 245 250 253 253 253 254 257 255 251 252 251 251
218 222 224 229 236 240 242 245 243 237 233 240 251 251 252 260 261 254 241 233 244 257 256 256 258 257 254 257 258 249 247 254 253 253 264 268 265 256 251 251 252 255
221 225 225 229 238 241 239 246 251 249 246 246 248 247 243 243 245 256 265 253 249 255 259 259 256 253 254 259 268 268 258 250 247 251 256 257 251 246 246 248 250 254
224 222 223 231 233 231 229 240 252 254 253 256 256 256 259 256 251 260 270 255 247 253 254 252 254 255 255 259 276 280 259 242 244 246 244 239 236 238 242 246 251 256
240 231 234 246 229 216 226 241 251 260 263 270 271 266 277 298 276 266 264 252 250 255 255 259 264 262 261 270 281 279 260 252 247 241 245 247 247 250 253 255 260 263
251 257 266 272 237 210 232 243 249 265 279 293 293 279 280 304 309 276 266 262 265 269 269 272 276 272 275 288 289 277 273 276 270 260 262 263 263 266 268 268 264 261
239 249 257 265 256 226 236 248 257 273 286 295 297 285 277 289 306 332 338 305 297 295 288 289 295 293 294 304 305 293 289 294 292 276 261 264 272 274 272 272 265 260
231 235 241 254 259 241 243 252 262 290 319 324 327 341 330 303 309 334 339 326 320 318 314 312 313 313 313 319 318 310 307 307 306 299 280 274 281 279 275 276 273 267
217 217 225 244 254 247 253 240 159 19 15 20 25 28 26 3 342 341 332 327 328 330 332 329 322 321 324 325 317 309 307 307 309 311 302 291 285 282 282 284 281 277
198 188 184 167 92 31 63 82 83 62 35 28 26 21 14 11 2 350 339 342 349 351 347 341 339 340 336 329 321 317 317 317 316 319 320 320 314 304 302 302 297 292
159 131 108 97 85 67 70 74 67 58 47 35 32 22 10 2 350 348 357 3 4 359 348 343 346 349 345 344 347 342 340 339 335 333 330 329 328 321 316 313 307 303
114 104 94 91 88 76 70 71 66 59 46 35 29 18 19 22 16 17 23 18 9 355 346 348 356 3 357 355 356 350 346 345 338 333 327 321 319 315 310 308 304 301
99 95 95 94 89 82 74 69 64 58 50 41 33 23 23 21 17 20 20 12 5 354 354 12 31 28 17 6 359 353 348 344 337 332 327 319 314 310 304 303 302 300
101 97 95 91 86 82 79 73 61 52 49 44 37 32 27 17 12 18 16 7 3 360 12 44 44 26 16 7 2 359 352 347 342 334 328 321 314 309 305 301 299 299
102 97 93 92 92 83 73 71 61 50 50 47 41 36 31 26 25 22 15 8 3 5 26 54 38 19 9 1 359 358 354 351 345 334 325 320 313 308 304 301 300 299
107 104 97 93 85 67 60 64 63 56 53 47 39 35 30 28 26 17 13 12 9 13 33 46 24 11 4 359 358 356 354 352 347 335 327 323 318 313 310 307 305 303
110 100 90 83 76 69 65 63 61 56 51 42 33 31 26 20 17 16 19 24 20 18 33 37 18 9 3 360 357 353 351 351 347 339 331 326 324 321 317 315 313 312
95 88 84 79 76 75 70 63 58 52 46 39 29 25 24 22 21 21 23 29 26 21 30 30 13 6 0 357 355 350 348 350 348 339 332 327 325 323 320 318 318 317
90 89 85 80 75 71 66 61 56 49 42 35 29 29 29 25 25 29 31 33 29 22 23 22 9 1 357 356 354 350 349 350 347 337 331 327 324 323 322 320 318 317
90 89 82 77 74 69 64 56 49 45 39 33 32 35 31 25 29 38 39 36 31 21 16 14 4 356 354 355 354 351 350 350 345 338 334 330 328 327 325 322 320 318
90 89 84 80 74 67 62 55 49 46 39 29 31 42 38 30 31 35 33 30 27 19 12 10 1 352 353 356 354 352 353 353 347 343 338 334 332 328 324 322 319 317
92 90 85 80 74 67 62 58 53 50 44 31 33 45 46 33 27 28 26 26 24 16 9 7 3 357 355 356 354 354 358 358 350 343 341 336 331 326 324 322 319 317
94 91 87 82 75 70 67 65 60 54 52 44 38 43 44 33 28 29 28 26 22 15 10 8 7 4 357 355 355 358 3 2 351 340 337 334 329 326 326 325 322 320
92 90 89 85 82 80 72 68 64 56 54 52 46 45 46 42 39 36 32 28 21 18 18 13 12 10 1 356 359 6 10 7 358 348 341 336 333 330 328 328 328 327